Terug naar catalogus

STARLINK-33786

ActiefCommunicatieVLEO
NORAD 63514·PAYLOAD·🇺🇸 United States

Gelanceerd Apr 7, 2025 vanaf Vandenberg Space Force Base

Loading…

Volgende Passages (komende 24 uur)

TLE

VersSource: CelesTrak SupGP

Epoch: Sep 15, 2026, 03:21 UTC

1 63514C 25071X   26258.14006944  .00068563  00000+0  20253-2 0  2584
2 63514  53.1580 338.5427 0001208  95.9763 308.4895 15.34363407    19

Volg STARLINK-33786 in realtime met AllMySat

Download on the App Store